Total_Precipitation_Accumulation
1.50 1.39 1.35 1.51 1.50 1.63 1.68 1.77 1.82 1.67 1.48 1.32 1.32 1.30 1.39 1.38 1.29 1.24 1.54 1.85 2.22 2.85 3.16 3.09 2.95 2.77 2.72 2.68 2.56 2.51 2.44 2.33 2.52 2.91 3.50 3.76 3.49 2.98 2.65 2.36 2.11 1.87 1.92
1.34 1.36 1.25 1.32 1.43 1.63 1.88 1.98 1.81 1.71 1.59 1.51 1.53 1.47 1.47 1.41 1.36 1.26 1.40 1.55 1.56 1.90 2.46 3.04 3.28 3.16 3.02 2.96 2.77 2.70 2.60 2.43 2.47 2.65 2.72 2.86 2.92 2.64 2.36 2.30 2.13 1.92 2.06
1.14 1.24 1.30 1.29 1.35 1.61 1.91 2.12 1.99 1.86 1.67 1.64 1.64 1.59 1.50 1.48 1.40 1.36 1.46 1.61 1.48 1.48 1.89 2.56 3.20 3.42 3.22 3.10 2.90 2.78 2.56 2.30 2.22 2.30 2.41 2.38 2.53 2.52 2.34 2.25 2.14 2.04 2.05
1.16 1.25 1.36 1.31 1.34 1.58 1.87 2.12 2.18 2.17 2.07 1.98 1.87 1.74 1.65 1.75 1.59 1.48 1.56 1.69 1.79 1.63 1.68 2.04 2.56 3.05 3.21 3.19 2.89 2.59 2.34 2.14 2.09 2.06 2.14 2.01 2.15 2.35 2.35 2.26 2.26 2.33 2.28
1.20 1.31 1.52 1.55 1.56 1.74 1.85 1.88 2.04 2.10 2.18 2.13 1.88 1.83 1.74 1.84 1.91 1.81 1.88 1.98 2.03 1.95 1.83 1.76 1.95 2.18 2.72 3.04 2.97 2.73 2.54 2.27 2.12 2.00 2.10 1.95 1.95 2.22 2.34 2.21 2.26 2.39 2.40
1.42 1.38 1.56 1.61 1.67 1.92 1.98 2.01 2.25 2.24 2.18 2.24 2.00 1.87 1.83 1.83 1.84 2.04 2.19 2.21 2.18 2.00 1.96 1.81 1.89 1.85 2.21 2.62 2.74 2.70 2.63 2.62 2.51 2.31 2.35 2.23 2.05 2.17 2.31 2.18 2.24 2.31 2.41
1.51 1.55 1.61 1.67 1.72 1.85 1.91 2.02 2.38 2.43 2.27 2.13 2.31 2.30 2.19 1.98 1.89 1.96 2.08 2.30 2.37 2.15 2.06 2.05 1.96 1.87 1.79 1.95 2.15 2.44 2.57 2.86 2.98 2.78 2.59 2.40 2.19 2.31 2.43 2.30 2.33 2.32 2.33
1.45 1.40 1.63 1.79 1.78 1.93 1.99 2.13 2.44 2.70 2.44 2.24 2.60 3.08 2.82 2.51 2.15 1.90 1.93 1.99 2.22 2.19 2.02 1.88 1.81 1.81 1.77 1.75 1.63 1.92 2.28 2.79 3.22 3.04 2.65 2.51 2.35 2.28 2.39 2.34 2.33 2.28 2.28
1.71 1.66 1.77 1.95 1.93 2.00 2.10 2.14 2.23 2.75 2.92 2.65 2.57 3.17 3.04 2.78 2.72 2.16 1.74 1.63 1.90 2.09 2.08 1.93 1.88 1.96 1.96 1.94 1.73 1.61 1.85 2.27 2.92 2.99 2.72 2.71 2.63 2.42 2.25 2.17 2.16 2.27 2.38
1.96 1.83 1.88 1.99 2.04 2.13 2.09 1.92 2.08 2.58 3.10 3.15 2.90 2.66 2.50 2.42 2.60 2.50 1.93 1.58 1.64 1.83 2.03 1.92 1.92 2.03 2.09 2.15 2.05 1.74 1.58 1.78 2.35 2.92 3.10 3.02 2.90 2.67 2.45 2.27 2.21 2.24 2.25
2.00 1.85 1.82 1.98 2.10 2.17 2.15 2.17 2.31 2.61 2.94 3.23 3.18 2.91 2.62 2.37 1.94 2.11 2.15 1.92 1.63 1.52 1.61 1.74 1.90 1.96 2.03 2.05 2.10 1.90 1.56 1.43 1.74 2.40 3.00 3.15 3.04 2.92 2.80 2.72 2.74 2.67 2.51
1.86 1.81 1.81 1.87 1.89 1.97 2.06 2.22 2.45 2.58 2.76 2.99 3.05 2.74 2.59 2.49 2.26 2.06 1.89 1.98 1.93 1.61 1.46 1.46 1.58 1.76 1.84 1.94 1.83 1.87 1.59 1.36 1.38 1.58 2.00 2.54 2.77 2.90 2.97 3.03 3.00 2.87 2.81
1.63 1.64 1.69 1.72 1.68 1.70 1.84 2.01 2.22 2.24 2.35 2.57 2.67 2.55 2.41 2.23 2.17 2.21 2.14 2.02 1.87 1.58 1.45 1.31 1.38 1.51 1.52 1.71 1.88 1.86 1.57 1.45 1.31 1.25 1.33 1.57 1.97 2.33 2.66 2.99 3.12 3.09 3.05
1.42 1.37 1.41 1.48 1.50 1.53 1.60 1.78 1.92 1.90 1.95 2.15 2.20 2.26 2.18 2.09 2.08 2.06 2.09 2.22 2.08 1.84 1.49 1.16 1.21 1.37 1.33 1.42 1.74 1.80 1.41 1.34 1.20 1.15 1.17 1.23 1.38 1.66 2.02 2.35 2.64 2.84 2.91
1.17 1.14 1.20 1.32 1.41 1.42 1.43 1.59 1.72 1.67 1.73 1.87 2.00 2.16 2.09 2.02 1.99 2.00 2.06 2.16 2.21 2.08 1.80 1.32 1.16 1.13 1.16 1.25 1.59 1.47 1.34 1.32 1.18 1.12 1.06 1.05 1.11 1.23 1.40 1.65 1.86 2.03 2.12
1.09 1.09 1.12 1.13 1.17 1.21 1.27 1.45 1.63 1.69 1.68 1.74 1.81 1.93 2.06 2.05 2.04 2.02 2.07 2.10 2.08 2.07 1.93 1.51 1.24 1.11 1.19 1.14 1.35 1.13 1.24 1.43 1.20 1.04 0.98 0.96 0.99 1.08 1.18 1.35 1.39 1.35 1.33
0.87 0.87 0.87 0.93 1.06 1.08 1.10 1.27 1.38 1.40 1.52 1.62 1.59 1.63 1.79 1.90 2.02 2.02 2.02 2.02 2.06 2.03 1.89 1.64 1.30 1.14 1.28 1.30 1.35 1.16 1.12 1.17 1.10 1.06 0.98 0.92 0.90 0.96 0.98 1.10 1.22 1.12 1.02
0.64 0.69 0.76 0.76 0.94 1.11 1.14 1.19 1.20 1.19 1.34 1.43 1.45 1.52 1.56 1.57 1.67 1.79 1.91 1.88 1.94 1.98 1.95 1.83 1.54 1.31 1.31 1.40 1.58 1.54 1.39 1.27 1.25 1.34 1.27 1.10 1.01 1.01 1.03 1.06 1.16 1.11 0.92
0.57 0.63 0.73 0.74 0.78 0.92 1.04 1.06 1.06 1.08 1.13 1.19 1.23 1.30 1.32 1.40 1.54 1.55 1.62 1.70 1.76 1.81 1.93 1.88 1.79 1.66 1.50 1.43 1.52 1.51 1.54 1.65 1.57 1.54 1.56 1.38 1.22 1.13 1.10 1.12 1.15 1.14 1.00
0.60 0.62 0.59 0.63 0.69 0.79 0.91 0.94 0.96 0.96 0.97 0.97 1.08 1.15 1.21 1.26 1.36 1.42 1.43 1.57 1.69 1.77 1.80 1.78 1.72 1.64 1.59 1.55 1.55 1.55 1.63 1.76 1.83 1.68 1.60 1.50 1.45 1.36 1.25 1.19 1.15 1.14 1.10
0.44 0.48 0.46 0.47 0.52 0.61 0.68 0.71 0.77 0.85 0.89 0.92 1.01 1.04 1.07 1.06 1.10 1.16 1.16 1.35 1.50 1.67 1.74 1.76 1.66 1.55 1.50 1.51 1.51 1.53 1.61 1.83 1.87 1.88 1.81 1.65 1.52 1.35 1.29 1.25 1.19 1.17 1.15
0.31 0.36 0.38 0.43 0.44 0.46 0.59 0.60 0.61 0.70 0.80 0.85 0.92 0.96 1.04 1.07 1.02 0.97 0.95 1.01 1.14 1.26 1.45 1.58 1.61 1.53 1.46 1.44 1.55 1.67 1.67 1.79 1.92 1.83 1.70 1.74 1.65 1.55 1.39 1.25 1.29 1.30 1.22
0.33 0.35 0.38 0.44 0.40 0.39 0.47 0.44 0.56 0.72 0.74 0.74 0.75 0.89 0.99 1.03 1.08 1.07 0.97 0.96 0.94 0.97 1.07 1.25 1.38 1.39 1.39 1.42 1.53 1.65 1.72 1.77 1.68 1.72 1.66 1.76 1.69 1.56 1.39 1.36 1.44 1.32 1.27
0.34 0.39 0.41 0.45 0.40 0.32 0.38 0.41 0.50 0.60 0.65 0.63 0.66 0.78 0.93 1.05 1.10 1.12 1.07 1.12 1.06 0.93 0.91 0.97 1.14 1.24 1.27 1.44 1.63 1.80 1.92 1.91 1.79 1.73 1.66 1.72 1.61 1.44 1.32 1.30 1.43 1.32 1.23
0.32 0.37 0.45 0.45 0.38 0.31 0.35 0.42 0.51 0.61 0.68 0.67 0.67 0.73 0.90 0.97 1.13 1.16 1.09 1.17 1.16 0.95 0.87 0.95 0.99 1.08 1.22 1.38 1.59 1.82 1.89 1.89 1.86 1.75 1.56 1.44 1.35 1.36 1.37 1.30 1.29 1.29 1.20
0.31 0.35 0.39 0.38 0.34 0.35 0.39 0.40 0.47 0.50 0.61 0.69 0.72 0.74 0.96 1.02 1.11 1.06 1.02 1.21 1.30 1.12 0.86 0.85 0.93 1.07 1.18 1.34 1.59 1.76 2.00 2.00 1.81 1.72 1.54 1.39 1.36 1.43 1.57 1.44 1.25 1.16 1.10